Year,Month,Day,Hour,Minute,Value (Times are PST for temperature in C)
2006,05,23,00,00,10.60
2006,05,23,00,01,10.60
2006,05,23,00,02,10.60
2006,05,23,00,03,10.50
2006,05,23,00,04,10.40
2006,05,23,00,05,10.50
2006,05,23,00,06,10.40
2006,05,23,00,07,10.40
2006,05,23,00,08,10.40
2006,05,23,00,09,10.40
2006,05,23,00,10,10.40
2006,05,23,00,11,10.40
2006,05,23,00,12,10.40
2006,05,23,00,13,10.40
2006,05,23,00,14,10.40
2006,05,23,00,15,10.40
2006,05,23,00,16,10.40
2006,05,23,00,17,10.40
2006,05,23,00,18,10.40
2006,05,23,00,19,10.40
2006,05,23,00,20,10.40
2006,05,23,00,21,10.40
2006,05,23,00,22,10.40
2006,05,23,00,23,10.30
2006,05,23,00,24,10.30
2006,05,23,00,25,10.30
2006,05,23,00,26,10.20
2006,05,23,00,27,10.20
2006,05,23,00,28,10.20
2006,05,23,00,29,10.20
2006,05,23,00,30,10.20
2006,05,23,00,31,10.10
2006,05,23,00,32,10.10
2006,05,23,00,33,10.10
2006,05,23,00,34,10.10
2006,05,23,00,35,10.10
2006,05,23,00,36,10.10
2006,05,23,00,37,10.10
2006,05,23,00,38,10.10
2006,05,23,00,39,10.10
2006,05,23,00,40,10.10
2006,05,23,00,41,10.10
2006,05,23,00,42,10.10
2006,05,23,00,43,10.10
2006,05,23,00,44,10.10
2006,05,23,00,45,10.10
2006,05,23,00,46,10.00
2006,05,23,00,47,9.90
2006,05,23,00,48,9.90
2006,05,23,00,49,9.90
2006,05,23,00,50,9.90
2006,05,23,00,51,9.90
2006,05,23,00,52,9.90
2006,05,23,00,53,9.90
2006,05,23,00,54,9.90
2006,05,23,00,55,9.90
2006,05,23,00,56,9.90
2006,05,23,00,57,9.90
2006,05,23,00,58,9.90
2006,05,23,00,59,9.90
2006,05,23,01,00,9.90
2006,05,23,01,01,9.90
2006,05,23,01,02,9.90
2006,05,23,01,03,9.90
2006,05,23,01,04,9.90
2006,05,23,01,05,9.90
2006,05,23,01,06,9.90
2006,05,23,01,07,9.90
2006,05,23,01,08,9.90
2006,05,23,01,09,9.90
2006,05,23,01,10,9.90
2006,05,23,01,11,9.90
2006,05,23,01,12,9.90
2006,05,23,01,13,9.90
2006,05,23,01,14,9.90
2006,05,23,01,15,9.90
2006,05,23,01,16,9.90
2006,05,23,01,17,9.90
2006,05,23,01,18,9.90
2006,05,23,01,19,9.90
2006,05,23,01,20,9.90
2006,05,23,01,21,9.90
2006,05,23,01,22,9.90
2006,05,23,01,23,9.90
2006,05,23,01,24,9.90
2006,05,23,01,25,9.90
2006,05,23,01,26,9.90
2006,05,23,01,27,10.00
2006,05,23,01,28,10.10
2006,05,23,01,29,10.10
2006,05,23,01,30,10.10
2006,05,23,01,31,10.10
2006,05,23,01,32,10.10
2006,05,23,01,33,10.10
2006,05,23,01,34,10.10
2006,05,23,01,35,10.00
2006,05,23,01,36,9.90
2006,05,23,01,37,9.90
2006,05,23,01,38,9.90
2006,05,23,01,39,9.90
2006,05,23,01,40,9.90
2006,05,23,01,41,9.90
2006,05,23,01,42,9.90
2006,05,23,01,43,10.00
2006,05,23,01,44,10.10
2006,05,23,01,45,10.10
2006,05,23,01,46,10.10
2006,05,23,01,47,10.10
2006,05,23,01,48,10.10
2006,05,23,01,49,10.10
2006,05,23,01,50,10.10
2006,05,23,01,51,10.10
2006,05,23,01,52,10.10
2006,05,23,01,53,10.10
2006,05,23,01,54,10.10
2006,05,23,01,55,10.10
2006,05,23,01,56,10.10
2006,05,23,01,57,10.10
2006,05,23,01,58,10.10
2006,05,23,01,59,10.10
2006,05,23,02,00,10.10
2006,05,23,02,01,10.10
2006,05,23,02,02,10.10
2006,05,23,02,03,10.10
2006,05,23,02,04,10.10
2006,05,23,02,05,10.10
2006,05,23,02,06,10.10
2006,05,23,02,07,10.10
2006,05,23,02,08,10.10
2006,05,23,02,09,10.00
2006,05,23,02,10,9.90
2006,05,23,02,11,9.90
2006,05,23,02,12,9.90
2006,05,23,02,13,9.90
2006,05,23,02,14,9.90
2006,05,23,02,15,9.90
2006,05,23,02,16,9.80
2006,05,23,02,17,9.80
2006,05,23,02,18,9.80
2006,05,23,02,19,9.80
2006,05,23,02,20,9.80
2006,05,23,02,21,9.80
2006,05,23,02,22,9.80
2006,05,23,02,23,9.80
2006,05,23,02,24,9.80
2006,05,23,02,25,9.80
2006,05,23,02,26,9.80
2006,05,23,02,27,9.80
2006,05,23,02,28,9.80
2006,05,23,02,29,9.80
2006,05,23,02,30,9.90
2006,05,23,02,31,9.90
2006,05,23,02,32,9.90
2006,05,23,02,33,9.90
2006,05,23,02,34,9.90
2006,05,23,02,35,9.90
2006,05,23,02,36,9.90
2006,05,23,02,37,9.90
2006,05,23,02,38,10.00
2006,05,23,02,39,10.10
2006,05,23,02,40,10.10
2006,05,23,02,41,10.10
2006,05,23,02,42,10.10
2006,05,23,02,43,10.10
2006,05,23,02,44,10.10
2006,05,23,02,45,10.10
2006,05,23,02,46,10.10
2006,05,23,02,47,10.10
2006,05,23,02,48,10.10
2006,05,23,02,49,10.10
2006,05,23,02,50,10.10
2006,05,23,02,51,10.10
2006,05,23,02,52,10.10
2006,05,23,02,53,10.10
2006,05,23,02,54,10.10
2006,05,23,02,55,10.10
2006,05,23,02,56,10.10
2006,05,23,02,57,10.10
2006,05,23,02,58,10.10
2006,05,23,02,59,10.10
2006,05,23,03,00,10.10
2006,05,23,03,01,10.10
2006,05,23,03,02,10.00
2006,05,23,03,03,9.90
2006,05,23,03,04,9.90
2006,05,23,03,05,9.90
2006,05,23,03,06,9.90
2006,05,23,03,07,9.90
2006,05,23,03,08,9.90
2006,05,23,03,09,9.90
2006,05,23,03,10,9.90
2006,05,23,03,11,9.90
2006,05,23,03,12,9.90
2006,05,23,03,13,9.90
2006,05,23,03,14,9.90
2006,05,23,03,15,9.90
2006,05,23,03,16,9.90
2006,05,23,03,17,9.90
2006,05,23,03,18,9.90
2006,05,23,03,19,9.90
2006,05,23,03,20,9.90
2006,05,23,03,21,9.90
2006,05,23,03,22,9.90
2006,05,23,03,23,9.90
2006,05,23,03,24,9.90
2006,05,23,03,25,9.90
2006,05,23,03,26,10.00
2006,05,23,03,27,10.10
2006,05,23,03,28,10.10
2006,05,23,03,29,10.10
2006,05,23,03,30,10.10
2006,05,23,03,31,10.10
2006,05,23,03,32,10.10
2006,05,23,03,33,10.10
2006,05,23,03,34,10.10
2006,05,23,03,35,10.10
2006,05,23,03,36,10.10
2006,05,23,03,37,10.10
2006,05,23,03,38,10.10
2006,05,23,03,39,10.10
2006,05,23,03,40,10.10
2006,05,23,03,41,10.10
2006,05,23,03,42,10.10
2006,05,23,03,43,10.10
2006,05,23,03,44,10.10
2006,05,23,03,45,10.10
2006,05,23,03,46,10.10
2006,05,23,03,47,10.10
2006,05,23,03,48,10.10
2006,05,23,03,49,10.10
2006,05,23,03,50,10.10
2006,05,23,03,51,10.10
2006,05,23,03,52,10.10
2006,05,23,03,53,10.10
2006,05,23,03,54,10.10
2006,05,23,03,55,10.10
2006,05,23,03,56,10.10
2006,05,23,03,57,10.10
2006,05,23,03,58,10.10
2006,05,23,03,59,10.10
2006,05,23,04,00,10.10
2006,05,23,04,01,10.10
2006,05,23,04,02,10.10
2006,05,23,04,03,10.10
2006,05,23,04,04,10.10
2006,05,23,04,05,10.10
2006,05,23,04,06,10.20
2006,05,23,04,07,10.20
2006,05,23,04,08,10.20
2006,05,23,04,09,10.20
2006,05,23,04,10,10.20
2006,05,23,04,11,10.20
2006,05,23,04,12,10.10
2006,05,23,04,13,10.10
2006,05,23,04,14,10.10
2006,05,23,04,15,10.10
2006,05,23,04,16,10.10
2006,05,23,04,17,10.10
2006,05,23,04,18,10.10
2006,05,23,04,19,10.20
2006,05,23,04,20,10.20
2006,05,23,04,21,10.20
2006,05,23,04,22,10.20
2006,05,23,04,23,10.10
2006,05,23,04,24,10.10
2006,05,23,04,25,10.20
2006,05,23,04,26,10.20
2006,05,23,04,27,10.20
2006,05,23,04,28,10.20
2006,05,23,04,29,10.20
2006,05,23,04,30,10.20
2006,05,23,04,31,10.20
2006,05,23,04,32,10.20
2006,05,23,04,33,10.20
2006,05,23,04,34,10.20
2006,05,23,04,35,10.20
2006,05,23,04,36,10.20
2006,05,23,04,37,10.20
2006,05,23,04,38,10.20
2006,05,23,04,39,10.20
2006,05,23,04,40,10.20
2006,05,23,04,41,10.20
2006,05,23,04,42,10.20
2006,05,23,04,43,10.20
2006,05,23,04,44,10.20
2006,05,23,04,45,10.20
2006,05,23,04,46,10.20
2006,05,23,04,47,10.20
2006,05,23,04,48,10.20
2006,05,23,04,49,10.20
2006,05,23,04,50,10.20
2006,05,23,04,51,10.20
2006,05,23,04,52,10.20
2006,05,23,04,53,10.20
2006,05,23,04,54,10.20
2006,05,23,04,55,10.20
2006,05,23,04,56,10.20
2006,05,23,04,57,10.20
2006,05,23,04,58,10.20
2006,05,23,04,59,10.20
2006,05,23,05,00,10.20
2006,05,23,05,01,10.20
2006,05,23,05,02,10.20
2006,05,23,05,03,10.20
2006,05,23,05,04,10.20
2006,05,23,05,05,10.20
2006,05,23,05,06,10.20
2006,05,23,05,07,10.20
2006,05,23,05,08,10.20
2006,05,23,05,09,10.20
2006,05,23,05,10,10.20
2006,05,23,05,11,10.20
2006,05,23,05,12,10.20
2006,05,23,05,13,10.20
2006,05,23,05,14,10.20
2006,05,23,05,15,10.20
2006,05,23,05,16,10.20
2006,05,23,05,17,10.20
2006,05,23,05,18,10.20
2006,05,23,05,19,10.30
2006,05,23,05,20,10.30
2006,05,23,05,21,10.30
2006,05,23,05,22,10.30
2006,05,23,05,23,10.30
2006,05,23,05,24,10.30
2006,05,23,05,25,10.20
2006,05,23,05,26,10.20
2006,05,23,05,27,10.20
2006,05,23,05,28,10.30
2006,05,23,05,29,10.30
2006,05,23,05,30,10.30
2006,05,23,05,31,10.30
2006,05,23,05,32,10.30
2006,05,23,05,33,10.40
2006,05,23,05,34,10.40
2006,05,23,05,35,10.40
2006,05,23,05,36,10.40
2006,05,23,05,37,10.40
2006,05,23,05,38,10.40
2006,05,23,05,39,10.40
2006,05,23,05,40,10.40
2006,05,23,05,41,10.40
2006,05,23,05,42,10.40
2006,05,23,05,43,10.40
2006,05,23,05,44,10.40
2006,05,23,05,45,10.40
2006,05,23,05,46,10.40
2006,05,23,05,47,10.40
2006,05,23,05,48,10.40
2006,05,23,05,49,10.40
2006,05,23,05,50,10.40
2006,05,23,05,51,10.40
2006,05,23,05,52,10.40
2006,05,23,05,53,10.40
2006,05,23,05,54,10.40
2006,05,23,05,55,10.40
2006,05,23,05,56,10.40
2006,05,23,05,57,10.40
2006,05,23,05,58,10.40
2006,05,23,05,59,10.40
2006,05,23,06,00,10.40
2006,05,23,06,01,10.40
2006,05,23,06,02,10.40
2006,05,23,06,03,10.40
2006,05,23,06,04,10.40
2006,05,23,06,05,10.40
2006,05,23,06,06,10.40
2006,05,23,06,07,10.40
2006,05,23,06,08,10.40
2006,05,23,06,09,10.40
2006,05,23,06,10,10.30
2006,05,23,06,11,10.30
2006,05,23,06,12,10.30
2006,05,23,06,13,10.30
2006,05,23,06,14,10.30
2006,05,23,06,15,10.30
2006,05,23,06,16,10.30
2006,05,23,06,17,10.30
2006,05,23,06,18,10.30
2006,05,23,06,19,10.40
2006,05,23,06,20,10.40
2006,05,23,06,21,10.40
2006,05,23,06,22,10.40
2006,05,23,06,23,10.40
2006,05,23,06,24,10.40
2006,05,23,06,25,10.40
2006,05,23,06,26,10.40
2006,05,23,06,27,10.60
2006,05,23,06,28,10.60
2006,05,23,06,29,10.60
2006,05,23,06,30,10.60
2006,05,23,06,31,10.60
2006,05,23,06,32,10.60
2006,05,23,06,33,10.60
2006,05,23,06,34,10.70
2006,05,23,06,35,10.70
2006,05,23,06,36,10.70
2006,05,23,06,37,10.80
2006,05,23,06,38,10.80
2006,05,23,06,39,10.90
2006,05,23,06,40,10.90
2006,05,23,06,41,10.90
2006,05,23,06,42,10.90
2006,05,23,06,43,10.90
2006,05,23,06,44,11.00
2006,05,23,06,45,11.10
2006,05,23,06,46,11.10
2006,05,23,06,47,11.10
2006,05,23,06,48,11.10
2006,05,23,06,49,11.10
2006,05,23,06,50,11.10
2006,05,23,06,51,11.10
2006,05,23,06,52,11.10
2006,05,23,06,53,11.10
2006,05,23,06,54,11.20
2006,05,23,06,55,11.20
2006,05,23,06,56,11.20
2006,05,23,06,57,11.20
2006,05,23,06,58,11.20
2006,05,23,06,59,11.20
2006,05,23,07,00,11.20
2006,05,23,07,01,11.20
2006,05,23,07,02,11.20
2006,05,23,07,03,11.20
2006,05,23,07,04,11.30
2006,05,23,07,05,11.30
2006,05,23,07,06,11.30
2006,05,23,07,07,11.30
2006,05,23,07,08,11.30
2006,05,23,07,09,11.40
2006,05,23,07,10,11.40
2006,05,23,07,11,11.40
2006,05,23,07,12,11.40
2006,05,23,07,13,11.40
2006,05,23,07,14,11.40
2006,05,23,07,15,11.40
2006,05,23,07,16,11.50
2006,05,23,07,17,11.60
2006,05,23,07,18,11.60
2006,05,23,07,19,11.60
2006,05,23,07,20,11.60
2006,05,23,07,21,11.60
2006,05,23,07,22,11.60
2006,05,23,07,23,11.60
2006,05,23,07,24,11.60
2006,05,23,07,25,11.60
2006,05,23,07,26,11.60
2006,05,23,07,27,11.60
2006,05,23,07,28,11.60
2006,05,23,07,29,11.60
2006,05,23,07,30,11.60
2006,05,23,07,31,11.60
2006,05,23,07,32,11.60
2006,05,23,07,33,11.60
2006,05,23,07,34,11.60
2006,05,23,07,35,11.60
2006,05,23,07,36,11.60
2006,05,23,07,37,11.60
2006,05,23,07,38,11.70
2006,05,23,07,39,11.70
2006,05,23,07,40,11.80
2006,05,23,07,41,11.80
2006,05,23,07,42,11.80
2006,05,23,07,43,11.80
2006,05,23,07,44,11.80
2006,05,23,07,45,11.80
2006,05,23,07,46,11.80
2006,05,23,07,47,11.80
2006,05,23,07,48,11.90
2006,05,23,07,49,11.90
2006,05,23,07,50,11.90
2006,05,23,07,51,11.90
2006,05,23,07,52,12.00
2006,05,23,07,53,12.00
2006,05,23,07,54,12.00
2006,05,23,07,55,12.00
2006,05,23,07,56,12.00
2006,05,23,07,57,12.00
2006,05,23,07,58,12.00
2006,05,23,07,59,12.00
2006,05,23,08,00,12.00
2006,05,23,08,01,12.00
2006,05,23,08,02,12.10
2006,05,23,08,03,12.10
2006,05,23,08,04,12.20
2006,05,23,08,05,12.20
2006,05,23,08,06,12.20
2006,05,23,08,07,12.20
2006,05,23,08,08,12.20
2006,05,23,08,09,12.20
2006,05,23,08,10,12.20
2006,05,23,08,11,12.20
2006,05,23,08,12,12.20
2006,05,23,08,13,12.20
2006,05,23,08,14,12.20
2006,05,23,08,15,12.20
2006,05,23,08,16,12.20
2006,05,23,08,17,12.20
2006,05,23,08,18,12.30
2006,05,23,08,19,12.30
2006,05,23,08,20,12.30
2006,05,23,08,21,12.30
2006,05,23,08,22,12.30
2006,05,23,08,23,12.30
2006,05,23,08,24,12.30
2006,05,23,08,25,12.30
2006,05,23,08,26,12.30
2006,05,23,08,27,12.30
2006,05,23,08,28,12.30
2006,05,23,08,29,12.30
2006,05,23,08,30,12.40
2006,05,23,08,31,12.40
2006,05,23,08,32,12.40
2006,05,23,08,33,12.40
2006,05,23,08,34,12.30
2006,05,23,08,35,12.30
2006,05,23,08,36,12.30
2006,05,23,08,37,12.30
2006,05,23,08,38,12.30
2006,05,23,08,39,12.30
2006,05,23,08,40,12.30
2006,05,23,08,41,12.30
2006,05,23,08,42,12.30
2006,05,23,08,43,12.40
2006,05,23,08,44,12.40
2006,05,23,08,45,12.40
2006,05,23,08,46,12.30
2006,05,23,08,47,12.30
2006,05,23,08,48,12.40
2006,05,23,08,49,12.40
2006,05,23,08,50,12.50
2006,05,23,08,51,12.50
2006,05,23,08,52,12.50
2006,05,23,08,53,12.50
2006,05,23,08,54,12.50
2006,05,23,08,55,12.60
2006,05,23,08,56,12.60
2006,05,23,08,57,12.60
2006,05,23,08,58,12.60
2006,05,23,08,59,12.60
2006,05,23,09,00,12.60
2006,05,23,09,01,12.60
2006,05,23,09,02,12.70
2006,05,23,09,03,12.60
2006,05,23,09,04,12.70
2006,05,23,09,05,12.70
2006,05,23,09,06,12.70
2006,05,23,09,07,12.70
2006,05,23,09,08,12.70
2006,05,23,09,09,12.70
2006,05,23,09,10,12.70
2006,05,23,09,11,12.60
2006,05,23,09,12,12.60
2006,05,23,09,13,12.60
2006,05,23,09,14,12.70
2006,05,23,09,15,12.60
2006,05,23,09,16,12.60
2006,05,23,09,17,12.60
2006,05,23,09,18,12.50
2006,05,23,09,19,12.50
2006,05,23,09,20,12.50
2006,05,23,09,21,12.40
2006,05,23,09,22,12.50
2006,05,23,09,23,12.50
2006,05,23,09,24,12.50
2006,05,23,09,25,12.50
2006,05,23,09,26,12.50
2006,05,23,09,27,12.50
2006,05,23,09,28,12.60
2006,05,23,09,29,12.70
2006,05,23,09,30,12.70
2006,05,23,09,31,12.80
2006,05,23,09,32,12.80
2006,05,23,09,33,12.90
2006,05,23,09,34,13.00
2006,05,23,09,35,13.10
2006,05,23,09,36,13.20
2006,05,23,09,37,13.20
2006,05,23,09,38,13.30
2006,05,23,09,39,13.30
2006,05,23,09,40,13.20
2006,05,23,09,41,13.10
2006,05,23,09,42,13.10
2006,05,23,09,43,13.00
2006,05,23,09,44,13.00
2006,05,23,09,45,13.00
2006,05,23,09,46,13.00
2006,05,23,09,47,13.00
2006,05,23,09,48,13.00
2006,05,23,09,49,12.90
2006,05,23,09,50,12.90
2006,05,23,09,51,12.90
2006,05,23,09,52,12.90
2006,05,23,09,53,12.90
2006,05,23,09,54,12.90
2006,05,23,09,55,12.90
2006,05,23,09,56,13.00
2006,05,23,09,57,13.00
2006,05,23,09,58,13.00
2006,05,23,09,59,13.00
2006,05,23,10,00,13.00
2006,05,23,10,01,13.00
2006,05,23,10,02,13.00
2006,05,23,10,03,13.00
2006,05,23,10,04,13.00
2006,05,23,10,05,13.10
2006,05,23,10,06,13.00
2006,05,23,10,07,12.90
2006,05,23,10,08,12.90
2006,05,23,10,09,12.90
2006,05,23,10,10,12.80
2006,05,23,10,11,12.80
2006,05,23,10,12,12.80
2006,05,23,10,13,12.80
2006,05,23,10,14,12.80
2006,05,23,10,15,12.80
2006,05,23,10,16,12.80
2006,05,23,10,17,12.80
2006,05,23,10,18,12.80
2006,05,23,10,19,12.90
2006,05,23,10,20,12.90
2006,05,23,10,21,12.80
2006,05,23,10,22,12.80
2006,05,23,10,23,12.80
2006,05,23,10,24,12.80
2006,05,23,10,25,12.80
2006,05,23,10,26,12.80
2006,05,23,10,27,12.80
2006,05,23,10,28,12.80
2006,05,23,10,29,12.80
2006,05,23,10,30,12.80
2006,05,23,10,31,12.80
2006,05,23,10,32,12.80
2006,05,23,10,33,12.80
2006,05,23,10,34,12.80
2006,05,23,10,35,12.80
2006,05,23,10,36,12.80
2006,05,23,10,37,12.80
2006,05,23,10,38,12.80
2006,05,23,10,39,12.80
2006,05,23,10,40,12.80
2006,05,23,10,41,12.80
2006,05,23,10,42,12.80
2006,05,23,10,43,12.80
2006,05,23,10,44,12.80
2006,05,23,10,45,12.80
2006,05,23,10,46,12.80
2006,05,23,10,47,12.70
2006,05,23,10,48,12.70
2006,05,23,10,49,12.60
2006,05,23,10,50,12.60
2006,05,23,10,51,12.50
2006,05,23,10,52,12.50
2006,05,23,10,53,12.50
2006,05,23,10,54,12.40
2006,05,23,10,55,12.30
2006,05,23,10,56,12.30
2006,05,23,10,57,12.30
2006,05,23,10,58,12.30
2006,05,23,10,59,12.30
2006,05,23,11,00,12.30
2006,05,23,11,01,12.30
2006,05,23,11,02,12.30
2006,05,23,11,03,12.30
2006,05,23,11,04,12.30
2006,05,23,11,05,12.30
2006,05,23,11,06,12.30
2006,05,23,11,07,12.30
2006,05,23,11,08,12.30
2006,05,23,11,09,12.30
2006,05,23,11,10,12.30
2006,05,23,11,11,12.30
2006,05,23,11,12,12.30
2006,05,23,11,13,12.30
2006,05,23,11,14,12.30
2006,05,23,11,15,12.30
2006,05,23,11,16,12.30
2006,05,23,11,17,12.30
2006,05,23,11,18,12.30
2006,05,23,11,19,12.30
2006,05,23,11,20,12.30
2006,05,23,11,21,12.30
2006,05,23,11,22,12.30
2006,05,23,11,23,12.30
2006,05,23,11,24,12.30
2006,05,23,11,25,12.30
2006,05,23,11,26,12.30
2006,05,23,11,27,12.20
2006,05,23,11,28,12.20
2006,05,23,11,29,12.10
2006,05,23,11,30,12.10
2006,05,23,11,31,12.10
2006,05,23,11,32,12.20
2006,05,23,11,33,12.20
2006,05,23,11,34,12.20
2006,05,23,11,35,12.30
2006,05,23,11,36,12.30
2006,05,23,11,37,12.30
2006,05,23,11,38,12.30
2006,05,23,11,39,12.30
2006,05,23,11,40,12.30
2006,05,23,11,41,12.30
2006,05,23,11,42,12.40
2006,05,23,11,43,12.40
2006,05,23,11,44,12.40
2006,05,23,11,45,12.40
2006,05,23,11,46,12.40
2006,05,23,11,47,12.40
2006,05,23,11,48,12.40
2006,05,23,11,49,12.40
2006,05,23,11,50,12.40
2006,05,23,11,51,12.50
2006,05,23,11,52,12.50
2006,05,23,11,53,12.50
2006,05,23,11,54,12.50
2006,05,23,11,55,12.60
2006,05,23,11,56,12.60
2006,05,23,11,57,12.60
2006,05,23,11,58,12.70
2006,05,23,11,59,12.80
2006,05,23,12,00,12.80
2006,05,23,12,01,12.80
2006,05,23,12,02,12.90
2006,05,23,12,03,12.90
2006,05,23,12,04,12.90
2006,05,23,12,05,12.90
2006,05,23,12,06,12.90
2006,05,23,12,07,13.00
2006,05,23,12,08,13.00
2006,05,23,12,09,13.00
2006,05,23,12,10,13.00
2006,05,23,12,11,13.10
2006,05,23,12,12,13.10
2006,05,23,12,13,13.10
2006,05,23,12,14,13.10
2006,05,23,12,15,13.10
2006,05,23,12,16,13.20
2006,05,23,12,17,13.20
2006,05,23,12,18,13.20
2006,05,23,12,19,13.20
2006,05,23,12,20,13.20
2006,05,23,12,21,13.20
2006,05,23,12,22,13.20
2006,05,23,12,23,13.20
2006,05,23,12,24,13.20
2006,05,23,12,25,13.30
2006,05,23,12,26,13.30
2006,05,23,12,27,13.30
2006,05,23,12,28,13.40
2006,05,23,12,29,13.50
2006,05,23,12,30,13.60
2006,05,23,12,31,13.60
2006,05,23,12,32,13.70
2006,05,23,12,33,13.80
2006,05,23,12,34,13.80
2006,05,23,12,35,13.90
2006,05,23,12,36,14.00
2006,05,23,12,37,14.10
2006,05,23,12,38,14.10
2006,05,23,12,39,14.20
2006,05,23,12,40,14.20
2006,05,23,12,41,14.30
2006,05,23,12,42,14.40
2006,05,23,12,43,14.60
2006,05,23,12,44,14.60
2006,05,23,12,45,14.70
2006,05,23,12,46,14.80
2006,05,23,12,47,14.80
2006,05,23,12,48,14.80
2006,05,23,12,49,14.80
2006,05,23,12,50,14.80
2006,05,23,12,51,14.80
2006,05,23,12,52,14.90
2006,05,23,12,53,14.90
2006,05,23,12,54,15.00
2006,05,23,12,55,15.00
2006,05,23,12,56,15.10
2006,05,23,12,57,15.20
2006,05,23,12,58,15.20
2006,05,23,12,59,15.30
2006,05,23,13,00,15.30
2006,05,23,13,01,15.40
2006,05,23,13,02,15.50
2006,05,23,13,03,15.50
2006,05,23,13,04,15.60
2006,05,23,13,05,15.70
2006,05,23,13,06,15.80
2006,05,23,13,07,15.80
2006,05,23,13,08,15.60
2006,05,23,13,09,15.50
2006,05,23,13,10,15.50
2006,05,23,13,11,15.40
2006,05,23,13,12,15.30
2006,05,23,13,13,15.40
2006,05,23,13,14,15.50
2006,05,23,13,15,15.50
2006,05,23,13,16,15.60
2006,05,23,13,17,15.60
2006,05,23,13,18,15.70
2006,05,23,13,19,15.70
2006,05,23,13,20,15.70
2006,05,23,13,21,15.70
2006,05,23,13,22,15.70
2006,05,23,13,23,15.80
2006,05,23,13,24,15.80
2006,05,23,13,25,15.90
2006,05,23,13,26,16.10
2006,05,23,13,27,16.30
2006,05,23,13,28,16.40
2006,05,23,13,29,16.60
2006,05,23,13,30,16.70
2006,05,23,13,31,16.70
2006,05,23,13,32,16.80
2006,05,23,13,33,16.70
2006,05,23,13,34,16.50
2006,05,23,13,35,16.40
2006,05,23,13,36,16.10
2006,05,23,13,37,16.00
2006,05,23,13,38,15.90
2006,05,23,13,39,16.00
2006,05,23,13,40,16.10
2006,05,23,13,41,15.90
2006,05,23,13,42,15.90
2006,05,23,13,43,15.90
2006,05,23,13,44,16.00
2006,05,23,13,45,16.10
2006,05,23,13,46,16.20
2006,05,23,13,47,16.30
2006,05,23,13,48,16.40
2006,05,23,13,49,16.40
2006,05,23,13,50,16.50
2006,05,23,13,51,16.60
2006,05,23,13,52,16.60
2006,05,23,13,53,16.70
2006,05,23,13,54,16.70
2006,05,23,13,55,16.60
2006,05,23,13,56,16.50
2006,05,23,13,57,16.30
2006,05,23,13,58,16.10
2006,05,23,13,59,16.10
2006,05,23,14,00,16.00
2006,05,23,14,01,15.80
2006,05,23,14,02,15.80
2006,05,23,14,03,15.90
2006,05,23,14,04,16.00
2006,05,23,14,05,16.10
2006,05,23,14,06,16.10
2006,05,23,14,07,16.10
2006,05,23,14,08,16.10
2006,05,23,14,09,16.10
2006,05,23,14,10,16.10
2006,05,23,14,11,15.90
2006,05,23,14,12,15.90
2006,05,23,14,13,15.90
2006,05,23,14,14,15.90
2006,05,23,14,15,15.90
2006,05,23,14,16,16.10
2006,05,23,14,17,16.10
2006,05,23,14,18,16.30
2006,05,23,14,19,16.40
2006,05,23,14,20,16.50
2006,05,23,14,21,16.70
2006,05,23,14,22,16.70
2006,05,23,14,23,16.70
2006,05,23,14,24,16.60
2006,05,23,14,25,16.60
2006,05,23,14,26,16.60
2006,05,23,14,27,16.60
2006,05,23,14,28,16.50
2006,05,23,14,29,16.40
2006,05,23,14,30,16.40
2006,05,23,14,31,16.40
2006,05,23,14,32,16.30
2006,05,23,14,33,16.30
2006,05,23,14,34,16.40
2006,05,23,14,35,16.40
2006,05,23,14,36,16.40
2006,05,23,14,37,16.40
2006,05,23,14,38,16.40
2006,05,23,14,39,16.50
2006,05,23,14,40,16.40
2006,05,23,14,41,16.40
2006,05,23,14,42,16.40
2006,05,23,14,43,16.60
2006,05,23,14,44,16.50
2006,05,23,14,45,16.40
2006,05,23,14,46,16.40
2006,05,23,14,47,16.40
2006,05,23,14,48,16.40
2006,05,23,14,49,16.40
2006,05,23,14,50,16.40
2006,05,23,14,51,16.40
2006,05,23,14,52,16.40
2006,05,23,14,53,16.60
2006,05,23,14,54,16.60
2006,05,23,14,55,16.60
2006,05,23,14,56,16.50
2006,05,23,14,57,16.40
2006,05,23,14,58,16.30
2006,05,23,14,59,16.30
2006,05,23,15,00,16.30
2006,05,23,15,01,16.30
2006,05,23,15,02,16.40
2006,05,23,15,03,16.60
2006,05,23,15,04,16.50
2006,05,23,15,05,16.40
2006,05,23,15,06,16.40
2006,05,23,15,07,16.40
2006,05,23,15,08,16.50
2006,05,23,15,09,16.60
2006,05,23,15,10,16.70
2006,05,23,15,11,16.70
2006,05,23,15,12,16.70
2006,05,23,15,13,16.60
2006,05,23,15,14,16.50
2006,05,23,15,15,16.40
2006,05,23,15,16,16.40
2006,05,23,15,17,16.30
2006,05,23,15,18,16.10
2006,05,23,15,19,16.00
2006,05,23,15,20,15.80
2006,05,23,15,21,15.80
2006,05,23,15,22,15.80
2006,05,23,15,23,16.00
2006,05,23,15,24,16.20
2006,05,23,15,25,16.30
2006,05,23,15,26,16.40
2006,05,23,15,27,16.40
2006,05,23,15,28,16.30
2006,05,23,15,29,16.20
2006,05,23,15,30,16.10
2006,05,23,15,31,16.00
2006,05,23,15,32,15.90
2006,05,23,15,33,15.80
2006,05,23,15,34,15.80
2006,05,23,15,35,15.80
2006,05,23,15,36,15.90
2006,05,23,15,37,16.00
2006,05,23,15,38,16.10
2006,05,23,15,39,16.10
2006,05,23,15,40,16.20
2006,05,23,15,41,16.20
2006,05,23,15,42,16.10
2006,05,23,15,43,16.00
2006,05,23,15,44,15.90
2006,05,23,15,45,15.80
2006,05,23,15,46,15.80
2006,05,23,15,47,15.80
2006,05,23,15,48,15.80
2006,05,23,15,49,15.70
2006,05,23,15,50,15.50
2006,05,23,15,51,15.40
2006,05,23,15,52,15.40
2006,05,23,15,53,15.30
2006,05,23,15,54,15.30
2006,05,23,15,55,15.30
2006,05,23,15,56,15.30
2006,05,23,15,57,15.30
2006,05,23,15,58,15.30
2006,05,23,15,59,15.30
2006,05,23,16,00,15.20
2006,05,23,16,01,15.10
2006,05,23,16,02,15.00
2006,05,23,16,03,15.00
2006,05,23,16,04,15.10
2006,05,23,16,05,15.10
2006,05,23,16,06,15.10
2006,05,23,16,07,15.00
2006,05,23,16,08,14.90
2006,05,23,16,09,14.80
2006,05,23,16,10,14.90
2006,05,23,16,11,15.00
2006,05,23,16,12,15.00
2006,05,23,16,13,15.10
2006,05,23,16,14,15.20
2006,05,23,16,15,15.30
2006,05,23,16,16,15.20
2006,05,23,16,17,15.10
2006,05,23,16,18,15.10
2006,05,23,16,19,15.10
2006,05,23,16,20,15.10
2006,05,23,16,21,15.00
2006,05,23,16,22,15.00
2006,05,23,16,23,15.10
2006,05,23,16,24,15.20
2006,05,23,16,25,15.40
2006,05,23,16,26,15.50
2006,05,23,16,27,15.60
2006,05,23,16,28,15.60
2006,05,23,16,29,15.50
2006,05,23,16,30,15.40
2006,05,23,16,31,15.30
2006,05,23,16,32,15.30
2006,05,23,16,33,15.30
2006,05,23,16,34,15.20
2006,05,23,16,35,15.20
2006,05,23,16,36,15.10
2006,05,23,16,37,15.00
2006,05,23,16,38,15.00
2006,05,23,16,39,15.00
2006,05,23,16,40,15.10
2006,05,23,16,41,15.10
2006,05,23,16,42,15.10
2006,05,23,16,43,15.20
2006,05,23,16,44,15.20
2006,05,23,16,45,15.10
2006,05,23,16,46,15.10
2006,05,23,16,47,15.20
2006,05,23,16,48,15.30
2006,05,23,16,49,15.30
2006,05,23,16,50,15.40
2006,05,23,16,51,15.40
2006,05,23,16,52,15.50
2006,05,23,16,53,15.50
2006,05,23,16,54,15.50
2006,05,23,16,55,15.50
2006,05,23,16,56,15.50
2006,05,23,16,57,15.50
2006,05,23,16,58,15.50
2006,05,23,16,59,15.40
2006,05,23,17,00,15.30
2006,05,23,17,01,15.30
2006,05,23,17,02,15.30
2006,05,23,17,03,15.40
2006,05,23,17,04,15.50
2006,05,23,17,05,15.60
2006,05,23,17,06,15.60
2006,05,23,17,07,15.60
2006,05,23,17,08,15.50
2006,05,23,17,09,15.60
2006,05,23,17,10,15.50
2006,05,23,17,11,15.60
2006,05,23,17,12,15.60
2006,05,23,17,13,15.60
2006,05,23,17,14,15.70
2006,05,23,17,15,15.70
2006,05,23,17,16,15.80
2006,05,23,17,17,15.80
2006,05,23,17,18,15.80
2006,05,23,17,19,15.80
2006,05,23,17,20,15.80
2006,05,23,17,21,15.80
2006,05,23,17,22,15.80
2006,05,23,17,23,15.90